�������l�o���
Date,Time,MP-1(��Sv/h),MP-2(��Sv/h),MP-3(��Sv/h),MP-4(��Sv/h),MP-5(��Sv/h),MP-6(��Sv/h),MP-7(��Sv/h),����,����(m/s),���J
2014/02/16,00:00,0.7,0.5,0.8,0.7,0.6,0.3,0.3,�k��,10.4,�L
2014/02/16,00:10,0.7,0.5,0.8,0.7,0.6,0.3,0.3,���k��,9.0,�L
2014/02/16,00:20,0.7,0.5,0.8,0.7,0.6,0.3,0.3,���k��,11.5,�L
2014/02/16,00:30,0.7,0.5,0.8,0.7,0.6,0.3,0.3,�k�k��,10.1,��
2014/02/16,00:40,0.7,0.5,0.8,0.7,0.6,0.3,0.3,�k��,7.5,�L
2014/02/16,00:50,0.7,0.5,0.8,0.7,0.6,0.3,0.3,�k�k��,7.9,�L
2014/02/16,01:00,0.7,0.5,0.8,0.7,0.6,0.3,0.3,�k��,9.3,�L
2014/02/16,01:10,0.7,0.5,0.8,0.7,0.6,0.3,0.3,�k�k��,10.1,�L
2014/02/16,01:20,0.7,0.5,0.8,0.7,0.6,0.3,0.3,�k��,8.6,�L
2014/02/16,01:30,0.7,0.5,0.8,0.7,0.6,0.3,0.3,���k��,9.0,�L
2014/02/16,01:40,0.7,0.5,0.8,0.7,0.6,0.3,0.3,�k��,8.6,�L
2014/02/16,01:50,0.7,0.5,0.8,0.7,0.6,0.3,0.3,�k��,9.3,��
2014/02/16,02:00,0.7,0.5,0.8,0.7,0.6,0.3,0.3,���k��,8.8,��
2014/02/16,02:10,0.7,0.5,0.8,0.7,0.6,0.3,0.3,�k��,9.3,��
2014/02/16,02:20,0.7,0.5,0.8,0.7,0.6,0.3,0.3,�k��,12.1,��
2014/02/16,02:30,0.7,0.5,0.8,0.7,0.6,0.3,0.3,�k��,9.6,��
2014/02/16,02:40,0.7,0.5,0.8,0.7,0.6,0.3,0.3,�k��,7.2,��
2014/02/16,02:50,0.7,0.5,0.8,0.7,0.6,0.3,0.3,�k�k��,8.3,��
2014/02/16,03:00,0.7,0.5,0.8,0.7,0.6,0.3,0.3,�k�k��,6.7,��
2014/02/16,03:10,0.7,0.5,0.8,0.7,0.6,0.3,0.3,�k��,8.8,��
2014/02/16,03:20,0.7,0.5,0.8,0.7,0.6,0.3,0.3,�k��,8.2,��
2014/02/16,03:30,0.7,0.5,0.8,0.7,0.6,0.3,0.3,�k��,7.0,��
2014/02/16,03:40,0.7,0.5,0.8,0.7,0.7,0.3,0.3,�k�k��,6.4,��
2014/02/16,03:50,0.7,0.5,0.8,0.7,0.7,0.3,0.3,�k��,6.5,��
2014/02/16,04:00,0.7,0.5,0.8,0.7,0.7,0.3,0.3,�k��,8.9,��
2014/02/16,04:10,0.7,0.5,0.8,0.7,0.6,0.3,0.3,�k��,7.0,��
2014/02/16,04:20,0.7,0.5,0.8,0.7,0.7,0.3,0.3,�k��,6.9,��
2014/02/16,04:30,0.7,0.5,0.8,0.7,0.7,0.3,0.3,�k�k��,6.2,��
2014/02/16,04:40,0.7,0.5,0.8,0.7,0.6,0.3,0.3,�k,7.2,��
2014/02/16,04:50,0.7,0.5,0.8,0.7,0.7,0.3,0.3,�k�k��,4.9,��
2014/02/16,05:00,0.7,0.5,0.8,0.7,0.7,0.3,0.3,�k,6.8,��
2014/02/16,05:10,0.7,0.5,0.8,0.7,0.7,0.3,0.3,�k,5.8,��
2014/02/16,05:20,0.7,0.5,0.8,0.7,0.6,0.3,0.3,�k,6.4,��
2014/02/16,05:30,0.7,0.5,0.8,0.7,0.6,0.3,0.3,�k�k��,7.5,��
2014/02/16,05:40,0.7,0.5,0.8,0.7,0.6,0.3,0.3,�k�k��,8.1,��
2014/02/16,05:50,0.7,0.5,0.8,0.7,0.7,0.3,0.3,�k�k��,6.2,��
2014/02/16,06:00,0.7,0.5,0.8,0.7,0.7,0.3,0.3,�k�k��,10.9,��
2014/02/16,06:10,0.7,0.5,0.8,0.7,0.7,0.3,0.3,�k�k��,9.4,��
2014/02/16,06:20,0.7,0.5,0.8,0.7,0.7,0.3,0.3,�k�k��,11.9,��
2014/02/16,06:30,0.7,0.5,0.8,0.7,0.7,0.3,0.3,�k�k��,10.5,��
2014/02/16,06:40,0.7,0.5,0.8,0.7,0.7,0.3,0.3,�k,11.7,��
2014/02/16,06:50,0.7,0.5,0.8,0.7,0.7,0.3,0.3,�k�k��,10.8,��
2014/02/16,07:00,0.7,0.5,0.8,0.7,0.7,0.3,0.3,�k�k��,10.7,��
2014/02/16,07:10,0.7,0.5,0.8,0.7,0.7,0.3,0.3,�k�k��,12.6,��
2014/02/16,07:20,0.7,0.5,0.8,0.7,0.7,0.3,0.3,�k�k��,12.6,��
2014/02/16,07:30,0.7,0.5,0.8,0.7,0.7,0.3,0.3,�k,16.5,��
2014/02/16,07:40,0.7,0.5,0.8,0.7,0.7,0.3,0.3,�k�k��,12.2,��
2014/02/16,07:50,0.7,0.5,0.8,0.7,0.7,0.3,0.3,�k�k��,13.6,��
2014/02/16,08:00,0.7,0.5,0.8,0.7,0.7,0.3,0.3,�k,16.2,��
2014/02/16,08:10,0.7,0.5,0.8,0.7,0.7,0.3,0.3,�k,12.4,��
2014/02/16,08:20,0.7,0.5,0.8,0.7,0.7,0.3,0.3,�k,11.9,��
2014/02/16,08:30,0.7,0.5,0.8,0.7,0.7,0.3,0.3,�k�k��,11.0,��
2014/02/16,08:40,0.7,0.5,0.8,0.7,0.7,0.3,0.3,�k,12.1,��
2014/02/16,08:50,0.7,0.5,0.8,0.7,0.7,0.3,0.3,�k�k��,11.1,��
2014/02/16,09:00,0.7,0.5,0.8,0.7,0.7,0.3,0.3,�k�k��,12.9,��
2014/02/16,09:10,0.7,0.5,0.8,0.7,0.7,0.3,0.3,�k�k��,14.1,��
2014/02/16,09:20,0.7,0.5,0.8,0.7,0.7,0.3,0.3,�k�k��,13.5,��
2014/02/16,09:30,0.7,0.5,0.8,0.7,0.7,0.3,0.3,�k�k��,13.1,��
2014/02/16,09:40,0.7,0.5,0.8,0.7,0.7,0.3,0.3,�k��,11.0,��
2014/02/16,09:50,0.7,0.5,0.8,0.7,0.7,0.3,0.3,�k��,10.6,��
2014/02/16,10:00,0.7,0.5,0.8,0.7,0.7,0.3,0.3,�k�k��,11.9,��
2014/02/16,10:10,0.7,0.5,0.8,0.7,0.7,0.3,0.3,�k�k��,12.6,��
2014/02/16,10:20,0.7,0.5,0.8,0.7,0.7,0.3,0.3,�k�k��,13.9,��
2014/02/16,10:30,0.7,0.5,0.8,0.7,0.7,0.3,0.3,�k�k��,13.6,��
2014/02/16,10:40,0.7,0.5,0.8,0.7,0.7,0.3,0.3,�k�k��,13.9,��
2014/02/16,10:50,0.7,0.5,0.8,0.7,0.7,0.3,0.3,�k��,12.1,��
2014/02/16,11:00,0.7,0.5,0.8,0.7,0.7,0.3,0.3,�k��,10.8,��
2014/02/16,11:10,0.7,0.5,0.8,0.7,0.7,0.3,0.3,�k��,9.9,��
2014/02/16,11:20,0.7,0.5,0.8,0.7,0.7,0.3,0.3,�k�k��,11.2,��
2014/02/16,11:30,0.7,0.5,0.8,0.7,0.7,0.3,0.3,�k�k��,11.3,��
2014/02/16,11:40,0.7,0.5,0.8,0.7,0.7,0.3,0.3,�k�k��,10.7,��
2014/02/16,11:50,0.8,0.5,0.8,0.7,0.7,0.3,0.3,�k��,8.7,��
2014/02/16,12:00,0.8,0.5,0.8,0.7,0.7,0.3,0.3,�k�k��,9.5,��
2014/02/16,12:10,0.7,0.5,0.8,0.7,0.7,0.3,0.3,�k�k��,10.6,��
2014/02/16,12:20,0.8,0.5,0.8,0.7,0.7,0.3,0.3,�k��,9.9,��
2014/02/16,12:30,0.7,0.5,0.8,0.7,0.7,0.3,0.3,�k�k��,10.2,��
2014/02/16,12:40,0.7,0.5,0.8,0.7,0.7,0.3,0.3,�k�k��,11.0,��
2014/02/16,12:50,0.8,0.5,0.8,0.7,0.7,0.3,0.3,�k�k��,11.2,��
2014/02/16,13:00,0.8,0.5,0.8,0.7,0.7,0.3,0.3,�k�k��,11.5,��
2014/02/16,13:10,0.7,0.5,0.8,0.7,0.7,0.3,0.3,�k�k��,13.1,��
2014/02/16,13:20,0.8,0.5,0.8,0.7,0.7,0.3,0.3,�k�k��,11.9,��
2014/02/16,13:30,0.8,0.5,0.8,0.7,0.7,0.3,0.3,�k��,11.2,��
2014/02/16,13:40,0.8,0.5,0.8,0.7,0.7,0.3,0.3,�k��,10.5,��
2014/02/16,13:50,0.8,0.5,0.8,0.7,0.7,0.3,0.3,�k��,10.9,��
2014/02/16,14:00,0.8,0.5,0.8,0.7,0.7,0.3,0.3,�k�k��,11.6,��
2014/02/16,14:10,0.8,0.5,0.8,0.7,0.7,0.3,0.3,�k��,10.2,��
2014/02/16,14:20,0.8,0.5,0.8,0.7,0.7,0.3,0.3,�k�k��,11.1,��
2014/02/16,14:30,0.8,0.5,0.8,0.7,0.7,0.3,0.3,�k�k��,9.0,��
2014/02/16,14:40,0.8,0.5,0.8,0.7,0.7,0.3,0.3,�k�k��,9.2,��
2014/02/16,14:50,0.8,0.5,0.8,0.7,0.7,0.3,0.3,�k��,12.6,��
2014/02/16,15:00,0.7,0.5,0.8,0.7,0.7,0.3,0.3,�k��,11.7,��
2014/02/16,15:10,0.8,0.5,0.8,0.7,0.7,0.3,0.3,�k�k��,14.3,��
2014/02/16,15:20,0.8,0.5,0.8,0.7,0.7,0.3,0.3,�k��,12.3,��
2014/02/16,15:30,0.8,0.5,0.8,0.7,0.7,0.3,0.3,�k��,11.5,��
2014/02/16,15:40,0.8,0.5,0.8,0.7,0.7,0.3,0.3,�k��,10.9,��
2014/02/16,15:50,0.8,0.5,0.8,0.7,0.7,0.3,0.3,�k��,12.4,��
2014/02/16,16:00,0.8,0.5,0.8,0.7,0.7,0.3,0.3,�k��,12.4,��
2014/02/16,16:10,0.8,0.5,0.8,0.7,0.7,0.3,0.3,�k��,12.5,��
2014/02/16,16:20,0.8,0.5,0.8,0.7,0.7,0.3,0.3,�k��,10.5,��
2014/02/16,16:30,0.8,0.5,0.8,0.7,0.7,0.3,0.3,�k�k��,10.3,��
2014/02/16,16:40,0.8,0.5,0.8,0.7,0.7,0.3,0.3,�k�k��,9.6,��
2014/02/16,16:50,0.8,0.5,0.8,0.7,0.7,0.3,0.3,�k�k��,8.1,��
2014/02/16,17:00,0.8,0.5,0.8,0.7,0.7,0.3,0.3,�k,13.4,��
2014/02/16,17:10,0.8,0.5,0.8,0.7,0.7,0.3,0.3,�k�k��,13.9,��
2014/02/16,17:20,0.8,0.5,0.8,0.7,0.7,0.3,0.3,�k�k��,10.5,��
2014/02/16,17:30,0.8,0.5,0.8,0.7,0.7,0.3,0.3,�k�k��,11.7,��
2014/02/16,17:40,0.8,0.5,0.8,0.7,0.7,0.3,0.3,�k�k��,10.2,��
2014/02/16,17:50,0.8,0.5,0.8,0.7,0.7,0.3,0.3,�k,9.8,��
2014/02/16,18:00,0.8,0.5,0.8,0.7,0.7,0.3,0.3,�k,9.6,��
2014/02/16,18:10,0.8,0.5,0.8,0.7,0.7,0.3,0.3,�k,7.6,��
2014/02/16,18:20,0.8,0.5,0.8,0.7,0.7,0.3,0.3,�k�k��,6.5,��
2014/02/16,18:30,0.8,0.5,0.8,0.7,0.7,0.3,0.3,�k�k��,2.7,��
2014/02/16,18:40,0.8,0.5,0.8,0.7,0.7,0.3,0.3,�k,5.6,��
2014/02/16,18:50,0.8,0.5,0.8,0.7,0.7,0.3,0.3,�k,5.5,��
2014/02/16,19:00,0.8,0.5,0.8,0.7,0.7,0.3,0.3,�k,6.9,��
2014/02/16,19:10,0.8,0.5,0.8,0.7,0.7,0.3,0.3,�k,4.8,��
2014/02/16,19:20,0.8,0.5,0.8,0.7,0.7,0.3,0.3,�k�k��,6.3,��
2014/02/16,19:30,0.8,0.5,0.8,0.7,0.7,0.3,0.3,�k�k��,5.2,��
2014/02/16,19:40,0.8,0.5,0.8,0.7,0.7,0.3,0.3,�k�k��,7.0,��
2014/02/16,19:50,0.8,0.5,0.8,0.7,0.7,0.3,0.3,�k�k��,6.1,��
2014/02/16,20:00,0.8,0.5,0.8,0.7,0.7,0.3,0.3,�k�k��,5.0,��
2014/02/16,20:10,0.8,0.5,0.8,0.7,0.7,0.3,0.3,�k�k��,5.8,��
2014/02/16,20:20,0.8,0.5,0.8,0.7,0.7,0.3,0.3,�k��,5.3,��
2014/02/16,20:30,0.8,0.5,0.8,0.7,0.7,0.3,0.3,�k��,6.4,��
2014/02/16,20:40,0.8,0.5,0.8,0.7,0.7,0.3,0.3,�k��,4.7,��
2014/02/16,20:50,0.8,0.5,0.8,0.7,0.7,0.3,0.3,�k�k��,3.1,��
2014/02/16,21:00,0.8,0.5,0.8,0.7,0.7,0.3,0.3,�k�k��,3.6,��
2014/02/16,21:10,0.8,0.5,0.8,0.7,0.7,0.3,0.3,�k��,6.7,��
2014/02/16,21:20,0.8,0.5,0.8,0.7,0.7,0.3,0.3,�k��,7.0,��
2014/02/16,21:30,0.8,0.5,0.8,0.7,0.7,0.3,0.3,�k�k��,7.2,��
2014/02/16,21:40,0.8,0.5,0.8,0.7,0.7,0.3,0.3,�k��,6.6,��
2014/02/16,21:50,0.8,0.5,0.8,0.7,0.7,0.3,0.3,�k��,8.1,��
2014/02/16,22:00,0.8,0.5,0.8,0.7,0.7,0.3,0.3,�k��,7.5,��
2014/02/16,22:10,0.8,0.5,0.8,0.7,0.7,0.3,0.3,�k��,4.2,��
2014/02/16,22:20,0.8,0.5,0.8,0.7,0.7,0.3,0.3,�k��,1.5,��
2014/02/16,22:30,0.8,0.5,0.8,0.7,0.7,0.3,0.3,�k�k��,1.9,��
2014/02/16,22:40,0.8,0.5,0.8,0.7,0.7,0.3,0.3,���k��,1.3,��
2014/02/16,22:50,0.8,0.5,0.8,0.7,0.7,0.3,0.3,���k��,3.3,��
2014/02/16,23:00,0.8,0.5,0.8,0.7,0.7,0.3,0.3,�k��,4.2,��
2014/02/16,23:10,0.8,0.5,0.8,0.7,0.7,0.3,0.3,�k�k��,5.8,��
2014/02/16,23:20,0.8,0.5,0.8,0.7,0.7,0.3,0.3,�k��,3.5,��
2014/02/16,23:30,0.8,0.5,0.8,0.7,0.7,0.3,0.3,�k�k��,4.2,��
2014/02/16,23:40,0.8,0.5,0.8,0.7,0.7,0.3,0.3,���k��,3.3,��
2014/02/16,23:50,0.8,0.5,0.8,0.7,0.7,0.3,0.3,�k��,6.2,��
